G4MDH Weather Reports


Display with metric or nautical units.
time (UTC)temp
F
wind
direction
speed
MPH
gust
MPH
rain 1hr
in
rain 24hr
in
rain mn
in
humidity
%
barometer
mb
20260904215350 55 261 0.0 1.0 0.00 0.43 0.11 88 1019.3
20260904214839 55 228 0.0 2.0 0.00 0.43 0.11 88 1019.3
20260904214320 55 266 0.0 2.0 0.00 0.43 0.11 87 1019.3
20260904213829 55 250 0.0 2.0 0.00 0.43 0.11 87 1019.3
20260904213331 56 236 0.0 2.0 0.00 0.43 0.11 87 1019.3
20260904212811 56 226 0.0 1.0 0.00 0.43 0.11 87 1019.2
20260904212313 56 229 0.0 1.0 0.00 0.43 0.11 86 1019.3
20260904211822 56 249 0.0 1.0 0.00 0.43 0.11 86 1019.3
20260904211324 56 249 0.0 1.0 0.00 0.43 0.11 86 1019.2
20260904210826 56 249 0.0 1.0 0.00 0.43 0.11 86 1019.2
20260904210316 56 260 0.0 1.0 0.00 0.43 0.11 85 1019.1
20260904205816 56 296 0.0 1.0 0.00 0.43 0.11 85 1019.1
20260904205318 57 296 0.0 2.0 0.00 0.43 0.11 85 1019.1
20260904204827 57 272 0.0 2.0 0.00 0.43 0.11 85 1019.0
20260904204329 57 281 0.0 2.0 0.00 0.43 0.11 85 1018.9
20260904203811 57 201 0.0 1.0 0.00 0.43 0.11 85 1019.0
20260904203322 57 320 0.0 1.0 0.00 0.43 0.11 84 1019.1
20260904202829 57 290 0.0 1.0 0.00 0.43 0.11 84 1019.0
20260904202311 57 291 0.0 1.0 0.00 0.43 0.11 84 1019.0
20260904201813 57 274 0.0 1.0 0.00 0.43 0.11 83 1018.9
20260904201321 58 278 0.0 2.0 0.00 0.43 0.11 83 1018.9
20260904200823 58 253 0.0 2.0 0.00 0.43 0.11 83 1018.8
20260904200312 58 328 0.0 2.0 0.00 0.43 0.11 82 1018.8
20260904195813 58 324 0.0 4.0 0.00 0.43 0.11 82 1018.8
20260904195322 58 318 0.0 4.0 0.00 0.43 0.11 81 1018.8
20260904194824 58 319 0.0 2.0 0.00 0.43 0.11 81 1018.7
20260904194325 59 326 0.0 2.0 0.00 0.43 0.11 80 1018.7
20260904193835 59 338 0.0 4.0 0.00 0.43 0.11 80 1018.6
20260904193317 59 272 0.0 4.0 0.00 0.43 0.11 79 1018.5
20260904192818 59 316 0.0 2.0 0.00 0.43 0.11 78 1018.4
20260904192327 59 334 0.0 3.0 0.00 0.43 0.11 77 1018.3
20260904191816 60 193 0.0 5.0 0.00 0.43 0.11 77 1018.3
20260904191318 60 229 1.0 4.0 0.00 0.43 0.11 77 1018.2
20260904190847 60 289 1.0 5.0 0.00 0.43 0.11 77 1018.1
20260904190329 60 359 2.0 5.0 0.00 0.43 0.11 76 1018.0
20260904185835 60 253 2.0 6.0 0.00 0.43 0.11 76 1017.8
20260904185338 61 332 2.0 6.0 0.00 0.43 0.11 76 1017.8
20260904184846 61 271 2.0 6.0 0.00 0.43 0.11 76 1017.7
20260904184326 61 215 2.0 9.0 0.00 0.43 0.11 76 1017.6